This demonstration page uses our WeatherBlox Daily Observations layout. Learn more.

Hourly Observations for April 3, 2016

Temp ( °F °C ) Dew Point ( °F °C ) Humidity (%) Winds ( mph kmh ) Pressure ( in mb ) Visibility ( mi km ) Precip ( " mm )
12:15 am 00:15 Clear 51 10.5 31 -0.7 46 46 S 13 20 30 1016 10 16.0934 0 0
12:35 am 00:35 Clear 50 10 31 -0.8 47 47 S 13 20 30 1016 10 16.0934 0 0
12:55 am 00:55 Clear 49 9.6 31 -0.8 49 49 SSW 13 20 30 1016 10 16.0934 0 0
1:15 am 01:15 Clear 49 9.3 31 -0.8 50 50 SSW 14 22 30 1016 10 16.0934 0 0
1:35 am 01:35 Clear 49 9.2 31 -0.8 50 50 SSW 12 19 30 1016 10 16.0934 0 0
1:55 am 01:55 Clear 48 8.9 31 -0.7 51 51 SSW 9 15 29.97 1015 10 16.0934 0 0
2:15 am 02:15 Clear 45 7.3 31 -0.8 57 57 SSW 7 11 30 1016 10 16.0934 0 0
2:35 am 02:35 Clear 44 6.7 30 -1 58 58 SSW 8 13 30 1016 10 16.0934 0 0
2:55 am 02:55 Clear 44 6.5 30 -1 59 59 SSW 7 11 30 1016 10 16.0934 0 0
3:15 am 03:15 Clear 43 6 31 -0.8 62 62 SW 7 11 30 1016 10 16.0934 0 0
3:35 am 03:35 Clear 42 5.8 31 -0.8 63 63 SW 8 13 29.97 1015 10 16.0934 0 0
3:55 am 03:55 Clear 43 6.1 31 -0.7 62 62 SW 9 15 29.97 1015 10 16.0934 0 0
4:15 am 04:15 Clear 43 6.3 31 -0.8 61 61 SW 8 13 29.97 1015 10 16.0934 0 0
4:35 am 04:35 Clear 43 6 30 -1 61 61 SW 8 13 29.97 1015 10 16.0934 0 0
4:55 am 04:55 Clear 42 5.6 30 -1.2 62 62 SW 6 9 29.97 1015 10 16.0934 0 0
5:15 am 05:15 Clear 44 6.6 30 -1 59 59 WSW 7 11 29.94 1014 10 16.0934 0 0
5:35 am 05:35 Clear 46 7.7 30 -1 54 54 WSW 9 15 29.94 1014 10 16.0934 0 0
5:55 am 05:55 Clear 46 7.7 30 -1 54 54 WSW 10 17 29.94 1014 10 16.0934 0 0
6:15 am 06:15 Clear 47 8.1 29 -1.5 51 51 WSW 12 19 29.94 1014 10 16.0934 0 0
6:35 am 06:35 Clear 46 8 29 -1.6 51 51 W 10 17 29.94 1014 10 16.0934 0 0
6:55 am 06:55 Clear 41 5.1 28 -2.1 60 60 W 6 9 29.94 1014 10 16.0934 0 0
7:15 am 07:15 Clear 39 4 28 -2.4 63 63 WSW 6 9 29.97 1015 10 16.0934 0 0
7:35 am 07:35 Sunny 44 6.6 29 -1.5 57 57 WSW 10 17 29.91 1013 10 16.0934 0 0
7:55 am 07:55 Sunny 47 8.1 30 -1.3 52 52 WSW 9 15 29.88 1012 10 16.0934 0 0
8:15 am 08:15 Sunny 49 9.2 30 -1.3 48 48 W 12 19 29.88 1012 10 16.0934 0 0
8:35 am 08:35 Sunny 50 10.1 29 -1.4 45 45 WSW 13 20 29.88 1012 10 16.0934 0 0
8:55 am 08:55 Sunny 52 11.3 29 -1.4 42 42 W 9 15 29.88 1012 10 16.0934 0 0
9:15 am 09:15 Sunny 54 12.4 30 -1.1 40 40 W 10 17 29.85 1011 10 16.0934 0 0
9:35 am 09:35 Sunny 57 13.8 29 -1.4 35 35 W 10 17 29.85 1011 10 16.0934 0 0
9:55 am 09:55 Sunny 60 15.8 30 -1 32 32 W 8 13 29.83 1010 10 16.0934 0 0
10:15 am 10:15 Sunny 64 18 30 -1 28 28 W 13 20 29.83 1010 10 16.0934 0 0
10:35 am 10:35 Sunny 67 19.6 30 -1 25 25 W 14 22 29.8 1009 10 16.0934 0 0
10:55 am 10:55 Sunny 70 21 29 -1.8 22 22 W 17 28 29.8 1009 10 16.0934 0 0
11:15 am 11:15 Sunny 71 21.8 29 -1.6 21 21 W 13 20 29.74 1007 10 16.0934 0 0
11:35 am 11:35 Sunny 72 22.4 28 -2 20 20 W 13 20 29.77 1008 10 16.0934 0 0
11:55 am 11:55 Sunny 74 23.1 28 -2.1 19 19 W 12 19 29.74 1007 10 16.0934 0 0
12:15 pm 12:15 Sunny 75 23.7 26 -3.1 17 17 W 15 24 29.74 1007 10 16.0934 0 0
12:35 pm 12:35 Sunny 76 24.2 27 -3 16 16 W 13 20 29.74 1007 10 16.0934 0 0
12:55 pm 12:55 Sunny 76 24.6 25 -3.8 15 15 W 13 20 29.71 1006 10 16.0934 0 0
1:15 pm 13:15 Sunny 77 25.1 24 -4.3 14 14 NW 17 28 29.68 1005 10 16.0934 0 0
1:35 pm 13:35 Sunny 77 25 26 -3.1 15 15 NW 14 22 29.68 1005 10 16.0934 0 0
1:55 pm 13:55 Sunny 77 25.1 27 -3 15 15 WNW 10 17 29.68 1005 10 16.0934 0 0
2:15 pm 14:15 Sunny 78 25.6 27 -2.8 15 15 NW 10 17 29.68 1005 10 16.0934 0 0
2:35 pm 14:35 Sunny 78 25.5 24 -4.3 14 14 NW 13 20 29.68 1005 10 16.0934 0 0
2:55 pm 14:55 Sunny 78 25.7 24 -4.5 13 13 NNW 14 22 29.68 1005 10 16.0934 0 0
3:15 pm 15:15 Sunny 78 25.8 24 -4.6 13 13 NW 18 30 29.68 1005 10 16.0934 0 0
3:35 pm 15:35 Sunny 78 25.7 24 -4.7 13 13 NW 15 24 29.68 1005 10 16.0934 0 0
3:55 pm 15:55 Sunny 79 26.2 25 -3.9 13 13 WNW 14 22 29.65 1004 10 16.0934 0 0
4:15 pm 16:15 Partly Cloudy 77 24.8 25 -4.1 14 14 NW 15 24 29.65 1004 10 16.0934 0 0
4:35 pm 16:35 Partly Cloudy 78 25.8 26 -3.3 14 14 NW 13 20 29.65 1004 10 16.0934 0 0
4:55 pm 16:55 Sunny 78 25.4 26 -3.2 15 15 NNW 13 20 29.65 1004 10 16.0934 0 0
5:15 pm 17:15 Partly Cloudy 79 26.2 27 -2.7 15 15 NNW 15 24 29.65 1004 10 16.0934 0 0
5:35 pm 17:35 Partly Cloudy 78 25.6 26 -3.3 15 15 NNW 15 24 29.65 1004 10 16.0934 0 0
5:55 pm 17:55 Sunny 78 25.5 26 -3.4 15 15 NNW 16 26 29.65 1004 10 16.0934 0 0
6:15 pm 18:15 Partly Cloudy 77 25 25 -4.1 14 14 NNW 15 24 29.68 1005 10 16.0934 0 0
6:35 pm 18:35 Partly Cloudy 75 23.8 24 -4.5 15 15 NNW 16 26 29.71 1006 10 16.0934 0 0
6:55 pm 18:55 Partly Cloudy 74 23.1 24 -4.5 16 16 NNW 17 28 29.71 1006 10 16.0934 0 0
7:15 pm 19:15 Partly Cloudy 72 22.2 25 -3.7 17 17 N 9 15 29.74 1007 10 16.0934 0 0
7:35 pm 19:35 Partly Cloudy 71 21.7 26 -3.4 18 18 N 9 15 29.74 1007 10 16.0934 0 0
7:55 pm 19:55 Partly Cloudy 69 20.8 26 -3.1 20 20 NNW 7 11 29.77 1008 10 16.0934 0 0
8:15 pm 20:15 Partly Cloudy 68 19.8 27 -3 21 21 NNW 6 9 29.8 1009 10 16.0934 0 0
8:35 pm 20:35 Mostly Cloudy 66 18.7 27 -2.6 24 24 NNW 10 17 29.8 1009 10 16.0934 0 0
8:55 pm 20:55 Partly Cloudy 65 18.5 28 -2.2 25 25 N 9 15 29.85 1011 10 16.0934 0 0
9:15 pm 21:15 Partly Cloudy 64 17.6 28 -2 26 26 N 9 15 29.85 1011 10 16.0934 0 0
9:35 pm 21:35 Partly Cloudy 63 17.2 29 -1.9 27 27 NNW 8 13 29.88 1012 10 16.0934 0 0
9:55 pm 21:55 Partly Cloudy 62 16.8 29 -1.9 28 28 NNW 8 13 29.88 1012 10 16.0934 0 0
10:15 pm 22:15 Clear 61 15.9 28 -2 29 29 NNW 9 15 29.91 1013 10 16.0934 0 0
10:35 pm 22:35 Clear 58 14.5 28 -2 32 32 NNW 9 15 29.94 1014 10 16.0934 0 0
10:55 pm 22:55 Clear 57 14.1 29 -1.9 33 33 NNW 7 11 29.97 1015 10 16.0934 0 0
11:15 pm 23:15 Clear 53 11.4 28 -2.2 39 39 NNW 5 7 30 1016 10 16.0934 0 0
11:35 pm 23:35 Clear 51 10.7 29 -1.7 42 42 NNW 8 13 30 1016 10 16.0934 0 0
11:55 pm 23:55 Clear 55 12.9 31 -0.3 41 41 N 8 13 29.97 1015 10 16.0934 0 0

Powered by AerisWeather